BMCB-18 Weather Reports


time (UTC)temp
C
wind
direction
speed
KPH
gust
KPH
rain 1hr
cm
rain 24hr
cm
rain mn
cm
humidity
%
barometer
mb
20260507090046 12 0 0.0 0.0 0.00 0.05 0.00 77 1017.5
20260507085046 11 0 0.0 0.0 0.00 0.05 0.00 78 1017.6
20260507084044 11 0 0.0 0.0 0.00 0.08 0.00 77 1017.5
20260507083046 11 0 0.0 0.0 0.00 0.10 0.00 78 1017.5
20260507082043 11 0 0.0 0.0 0.00 0.10 0.00 80 1017.4
20260507081044 10 0 0.0 0.0 0.00 0.13 0.00 80 1017.4
20260507080043 10 0 0.0 0.0 0.00 0.15 0.00 81 1017.4
20260507074046 10 0 0.0 0.0 0.00 0.15 0.00 81 1017.2
20260507073045 10 0 0.0 0.0 0.00 0.15 0.00 81 1017.2
20260507072047 10 0 0.0 0.0 0.00 0.15 0.00 82 1017.1
20260507071045 10 0 0.0 0.0 0.00 0.15 0.00 82 1017.1
20260507070044 10 0 0.0 0.0 0.00 0.15 0.00 84 1017.1
20260507064045 9 0 0.0 0.0 0.00 0.20 0.00 87 1017.0
20260507063040 9 0 0.0 0.0 0.00 0.23 0.00 87 1016.9
20260507061046 8 0 0.0 0.0 0.00 0.23 0.00 91 1016.7
20260507055041 8 0 0.0 0.0 0.00 0.23 0.00 95 1016.6
20260507054045 8 0 0.0 0.0 0.00 0.23 0.00 95 1016.5
20260507052046 8 0 0.0 0.0 0.00 0.28 0.00 96 1016.3
20260507051045 7 0 0.0 0.0 0.00 0.33 0.00 96 1016.3
20260507050046 7 0 0.0 0.0 0.00 0.33 0.00 96 1016.2
20260507045045 7 0 0.0 0.0 0.00 0.41 0.00 96 1016.1
20260507044045 7 0 0.0 0.0 0.00 0.41 0.00 96 1016.0
20260507043046 7 0 0.0 0.0 0.00 0.41 0.00 96 1015.9
20260507042044 7 0 0.0 0.0 0.00 0.41 0.00 96 1015.8
20260507041043 7 0 0.0 0.0 0.00 0.41 0.00 95 1015.7
20260507040046 7 0 0.0 0.0 0.00 0.43 0.00 95 1015.6
20260507035047 7 0 0.0 0.0 0.00 0.43 0.00 95 1015.5
20260507032047 7 0 0.0 0.0 0.00 0.46 0.00 94 1015.4
20260507031044 7 0 0.0 0.0 0.00 0.51 0.00 93 1015.4
20260507030045 7 0 0.0 0.0 0.00 0.51 0.00 93 1015.4
20260507024041 7 0 0.0 0.0 0.00 0.56 0.00 94 1015.3
20260507022046 7 0 0.0 0.0 0.00 0.61 0.00 94 1015.1
20260507021046 7 0 0.0 0.0 0.00 0.61 0.00 94 1015.0
20260507020046 7 0 0.0 0.0 0.00 0.66 0.00 93 1015.0
20260507015042 7 0 0.0 0.0 0.00 0.66 0.00 93 1015.0
20260507014047 7 0 0.0 0.0 0.00 0.71 0.00 93 1015.1
20260507013044 7 0 0.0 0.0 0.00 0.71 0.00 93 1015.1
20260507010045 8 0 0.0 0.0 0.00 0.79 0.00 93 1015.0
20260507005042 8 0 0.0 0.0 0.00 0.81 0.00 93 1015.0
20260507003042 7 0 0.0 0.0 0.00 0.86 0.00 93 1014.9
20260507001044 8 0 0.0 0.0 0.00 0.89 0.00 94 1014.9
20260507000050 7 0 0.0 0.0 0.00 0.94 0.00 95 1014.8
20260506235046 7 0 0.0 0.0 0.00 0.99 0.00 96 1014.8
20260506233045 7 0 0.0 0.0 0.00 1.04 0.00 97 1014.6
20260506232045 7 0 0.0 0.0 0.00 1.09 0.00 97 1014.6
20260506231049 7 0 0.0 0.0 0.00 1.14 0.00 97 1014.5
20260506230049 7 0 0.0 0.0 0.00 1.14 0.00 97 1014.5
20260506225046 7 0 0.0 0.0 0.00 1.17 0.00 96 1014.4
20260506224047 7 0 0.0 0.0 0.00 1.17 0.00 96 1014.3
20260506223046 7 0 0.0 0.0 0.00 1.22 0.00 96 1014.2
20260506222046 7 0 0.0 0.0 0.00 1.24 0.00 96 1014.1
20260506221048 7 0 0.0 0.0 0.00 1.27 0.00 95 1014.0
20260506220052 7 0 0.0 0.0 0.00 1.27 0.00 96 1014.0
20260506215050 7 0 0.0 0.0 0.00 1.30 1.27 96 1014.0
20260506214049 7 0 0.0 0.0 0.00 1.32 1.27 95 1013.9
20260506213048 7 0 0.0 0.0 0.00 1.35 1.27 95 1013.8
20260506212050 8 0 0.0 0.0 0.00 1.37 1.27 94 1013.7
20260506211050 8 0 0.0 0.0 0.00 1.40 1.27 93 1013.6
20260506210047 8 0 0.0 0.0 0.00 1.42 1.27 92 1013.4
20260506204047 8 0 0.0 0.0 0.00 1.47 1.27 90 1013.4
20260506203049 8 0 0.0 0.0 0.00 1.47 1.27 89 1013.3
20260506202048 8 0 0.0 0.0 0.00 1.50 1.27 89 1013.3
20260506201053 8 0 0.0 0.0 0.00 1.52 1.27 89 1013.2
20260506200051 8 0 0.0 0.0 0.00 1.55 1.27 89 1013.1
20260506194051 8 0 0.0 0.0 0.00 1.57 1.27 91 1013.0
20260506193050 8 0 0.0 0.0 0.00 1.63 1.27 91 1012.9
20260506192046 8 0 0.0 0.0 0.00 1.65 1.27 91 1012.8
20260506185050 9 0 0.0 0.0 0.00 1.70 1.27 86 1012.5
20260506183051 10 0 0.0 0.0 0.00 1.75 1.27 83 1012.3
20260506180047 10 0 0.0 0.0 0.00 1.80 1.27 82 1011.9
20260506175048 10 0 0.0 0.0 0.00 1.83 1.27 82 1011.7
20260506173044 11 0 0.0 0.0 0.00 1.83 1.27 81 1011.5
20260506172045 11 0 0.0 0.0 0.00 1.85 1.27 79 1011.4
20260506171046 11 0 0.0 0.0 0.00 1.85 1.27 78 1011.3
20260506170043 11 0 0.0 0.0 0.00 1.85 1.27 78 1011.3
20260506165043 11 0 0.0 0.0 0.00 1.88 1.27 78 1011.2
20260506163046 12 0 0.0 0.0 0.00 1.88 1.27 79 1011.0
20260506161045 11 0 0.0 0.0 0.00 1.88 1.27 83 1011.1
20260506160043 11 0 0.0 0.0 0.00 1.88 1.27 83 1011.1
20260506155047 11 0 0.0 0.0 0.00 1.88 1.27 84 1011.0
20260506154050 11 0 0.0 0.0 0.00 1.88 1.27 84 1010.9
20260506152049 12 0 0.0 0.0 0.00 1.88 1.27 82 1010.8
20260506151050 11 0 0.0 0.0 0.00 1.88 1.27 86 1010.8
20260506150048 11 0 0.0 0.0 0.00 1.88 1.27 87 1010.8
20260506145046 11 0 0.0 0.0 0.00 1.88 1.27 87 1010.8
20260506144044 11 0 0.0 0.0 0.00 1.88 1.27 83 1010.8
20260506141045 11 0 0.0 0.0 0.00 1.88 1.27 84 1010.8
20260506140054 11 0 0.0 0.0 0.00 1.88 1.27 82 1010.8
20260506135048 12 0 0.0 0.0 0.00 1.88 1.27 82 1010.7
20260506134048 11 0 0.0 0.0 0.00 1.88 1.27 84 1010.8
20260506132045 11 0 0.0 0.0 0.00 1.88 1.27 87 1010.9
20260506130043 10 0 0.0 0.0 0.00 1.88 1.27 88 1010.8
20260506125045 10 0 0.0 0.0 0.00 1.88 1.27 89 1010.8
20260506124045 10 0 0.0 0.0 0.00 1.88 1.27 88 1010.7
20260506123045 10 0 0.0 0.0 0.00 1.88 1.27 87 1010.6
20260506122045 11 0 0.0 0.0 0.00 1.88 1.27 87 1010.6
20260506121046 11 0 0.0 0.0 0.03 1.88 1.27 89 1010.6
20260506120046 10 0 0.0 0.0 0.03 1.88 1.27 90 1010.5
20260506114044 10 0 0.0 0.0 0.03 1.88 1.27 94 1010.5
20260506112048 10 0 0.0 0.0 0.03 1.88 1.27 96 1010.5
20260506111048 10 0 0.0 0.0 0.03 1.88 1.27 97 1010.6
20260506110047 10 0 0.0 0.0 0.00 1.85 1.27 98 1010.6
20260506105043 9 0 0.0 0.0 0.03 1.85 1.27 98 1010.5
20260506104044 9 0 0.0 0.0 0.03 1.85 1.27 98 1010.5
20260506103045 9 0 0.0 0.0 0.03 1.85 1.27 99 1010.5
20260506101044 9 0 0.0 0.0 0.03 1.85 1.27 99 1010.3
20260506100043 8 0 0.0 0.0 0.05 1.85 1.27 10 1010.2
20260506095044 8 0 0.0 0.0 0.05 1.85 1.27 10 1010.2
20260506093043 8 0 0.0 0.0 0.05 1.83 1.24 10 1010.0
20260506091044 8 0 0.0 0.0 0.08 1.83 1.24 10 1010.0